Starlink 4716

operational
NORAD ID: 53706 Int'l Des: 2022-107 Owner: SPXS Country: US Constellation: starlink
LEOCIRCULAR

关于 Starlink 4716

正在加载描述...

实时位置

正在加载3D地球...

即将过境

高度历史

Altitude vs Time

uPlot chart will show altitude changes over time

两行轨道根数

1 53706U 22107G 25350.96014326 .00000022 00000-0 19481-4 0 9990
2 53706 53.2163 255.5626 0001161 102.9523 257.1599 15.08836831182366
Epoch: Dec 16, 2025 • Age: 9 hours

当前状态

高度 546.6 km
速度 7.59 km/s
星下点 -23.18°S, 112.47°W
发射日期 Sep 5, 2022
运行时间 3.2 years
类型 internet

技术详情

分类 Payload
质量 305.00 kg
干质量 290.00 kg
总质量 305.00 kg
长度 0.20 m
直径 2.80 m
跨度 9.00 m
形状 Box + pan
制造商 SPXS
平台类型 Starlink
阶段状态 In Orbit
所有者/国家 SPXS/US

大型星座

Loading constellations...